Starlink 31570

operational
NORAD ID: 59324 Int'l Des: 2024-057 Owner: SPXS Country: US Constellation: starlink
LEOCIRCULAR

Starlink 31570について

説明を読み込み中...

リアルタイム位置

3D地球を読み込み中...

次回通過

高度履歴

Altitude vs Time

uPlot chart will show altitude changes over time

軌道要素

1 59324U 24057E 25306.37637843 .00003102 00000-0 12225-3 0 9999
2 59324 43.0053 186.4613 0000818 287.4498 72.6264 15.27560304 90366
Epoch: Nov 2, 2025 • Age: 32 hours

現在のステータス

高度 482.4 km
速度 7.63 km/s
衛星直下点 19.12°N, 90.59°W
打ち上げ日 Mar 25, 2024
運用期間 1.6 years
タイプ internet

技術仕様

分類 Payload
質量 730.00 kg
乾燥質量 700.00 kg
総質量 730.00 kg
長さ 0.30 m
直径 4.10 m
スパン 29.00 m
形状 Box + pan
製造者 SPXS
バスタイプ Starlink V2M
フェーズステータス In Orbit
所有者/国 SPXS/US

大規模コンステレーション

Loading constellations...